#timestamp,LO_Frequency,Hit,StdDev 
1622887215.6,286047003.6,N
1622887235.4,286047005.8,N
1622887255.2,286047003.8,N
1622887275.1,286047003.6,N
1622887276.0,286047003.6,N
1622887295.8,286047005.9,N
1622887315.6,286047005.6,N
1622887335.5,286047004.8,N
1622887355.3,286047004.8,N
1622887375.2,286047005.3,N
1622887395.9,286047005.7,N
1622887415.7,286047005.2,N
1622887435.6,286047004.5,N
1622887455.4,286047005.6,N
1622887475.3,286047004.7,N
1622887495.1,286047005.5,Y
1622887496.0,286047005.5,P
1622887515.8,286047002.5,N
1622887535.7,286047000.2,N
1622887555.5,286047002.3,N
1622887575.3,286047002.3,N
1622887595.2,286047002.3,N
1622887615.0,286047002.2,N
1622887615.9,286047002.2,N
1622887635.8,286047001.6,N
1622887655.6,286047001.9,N
1622887675.4,286047002.1,N
1622887695.3,286047001.3,N
1622887715.1,286047001.9,N
1622887735.8,286047002.6,N
1622887755.7,286046999.8,N
1622887775.5,286047002.0,N
1622887795.4,286047002.4,N
1622887815.2,286047002.3,N
1622887835.0,286047001.6,N
1622887835.9,286047001.6,N
1622887855.8,286047002.0,N
1622887875.6,286047002.2,N
1622887895.4,286047002.3,N
1622887915.3,286047002.2,N
1622887935.1,286047002.2,N
1622887955.9,286047002.7,N
1622887975.7,286047002.6,N
1622887995.5,286046999.8,N
1622888015.4,286047001.5,N
1622888035.2,286047002.2,N
1622888055.0,286047002.8,N
1622888056.0,286047002.8,Y
1622888075.8,286047000.5,P
1622888125.7,286047001.2,E
1622888135.6,286046998.4,N
1622888155.4,286046999.3,P
1622888175.3,286046999.3,N
1622888195.1,286046999.0,N
1622888215.9,286046996.6,Y
1622888235.7,286046998.7,P
1622888255.5,286046999.5,P
1622888275.4,286046999.5,N
1622888295.2,286046997.8,Y
1622888315.0,286046998.8,P
1622888316.0,286046998.8,P
1622888335.8,286046999.1,P
1622888355.6,286047001.0,Y
1622888375.5,286047000.0,P
1622888395.3,286047002.5,P
1622888415.2,286047001.3,N
1622888435.9,286047001.6,N
1622888455.7,286047002.3,N
1622888475.6,286047002.2,N
1622888495.4,286047002.3,N
1622888515.2,286047001.8,N
1622888535.1,286047001.3,N
1622888536.0,286047001.3,N
1622888555.8,286047001.4,N
1622888575.7,286047002.5,N
1622888595.5,286047000.2,N
1622888615.3,286047002.3,N
1622888635.2,286047002.5,N
1622888655.0,286046999.7,N
1622888655.9,286046999.7,N
1622888675.8,286047000.4,N
1622888695.6,286046998.6,N
1622888715.4,286046999.5,N
1622888735.3,286046999.1,N
1622888755.1,286046997.0,N
1622888775.8,286046998.9,N
1622888795.7,286046998.4,N
1622888815.5,286047000.8,N
1622888835.4,286046998.6,N
1622888855.2,286046999.4,N
1622888875.0,286046999.0,N
1622888875.9,286046999.0,N
1622888895.8,286046997.0,N
1622888915.6,286046999.3,N
1622888935.5,286046998.9,N
1622888955.3,286046999.3,N
1622888975.1,286046999.5,N
1622888995.9,286046998.4,N
1622889015.7,286046998.1,N
1622889035.5,286046998.6,N
1622889055.4,286046998.8,N
1622889075.2,286046999.3,N
1622889095.1,286046999.0,N
1622889096.0,286046999.0,N
1622889115.8,286046998.9,N
1622889135.6,286046998.8,N
1622889155.5,286046999.6,N
1622889175.3,286046997.4,N
1622889195.1,286046997.2,Y
1622889215.9,286046996.7,P
1622889235.7,286046999.4,N
1622889255.6,286046999.3,N
1622889275.4,286047000.7,N
1622889295.2,286046998.2,N
1622889315.1,286046999.2,N
1622889316.0,286046999.2,N
1622889335.8,286046996.5,Y
1622889355.6,286046998.4,P
1622889375.5,286046998.4,P
1622889395.3,286046998.2,P
1622889415.2,286047000.8,N
1622889435.9,286047000.7,N
1622889455.7,286047000.5,N
1622889475.6,286047000.9,N
1622889495.4,286047001.2,N
1622889515.2,286047000.8,N
1622889535.1,286046999.8,N
1622889536.0,286046999.8,N
1622889555.8,286047002.2,N
1622889575.7,286047000.1,N
1622889595.5,286047000.0,N
1622889615.3,286047000.3,N
1622889635.2,286046999.7,N
1622889655.9,286047002.3,N
1622889675.7,286046999.8,N
1622889695.6,286046999.7,N
1622889715.4,286047000.1,N
1622889735.2,286047001.9,N
1622889755.1,286047001.8,N
1622889756.0,286047001.8,N
1622889775.8,286047002.0,N
1622889795.7,286047001.7,N
1622889815.5,286047004.2,Y
1622889835.3,286047004.4,P
1622889855.2,286047001.7,N
1622889875.0,286047003.9,N
1622889875.9,286047003.9,N
1622889895.8,286047003.4,N
1622889915.6,286047004.2,N
1622889935.4,286047001.3,N
1622889955.3,286047002.5,N
1622889975.1,286047001.6,N
1622889995.8,286047001.7,N
1622890015.7,286047001.4,N
1622890035.5,286047001.3,N
1622890055.4,286047001.9,N
1622890075.2,286047001.7,N
1622890095.0,286047002.2,N
1622890095.9,286047002.2,N
1622890115.8,286047002.2,N
1622890135.6,286047002.1,N
1622890155.4,286047002.8,N
1622890175.3,286047002.7,N
1622890195.1,286047002.3,N
1622890215.9,286047000.4,N
1622890235.7,286047000.9,N
1622890255.5,286047000.2,N
1622890275.4,286046999.9,N
1622890295.2,286047002.8,N
1622890315.0,286046999.7,N
1622890315.9,286046999.7,N
1622890335.8,286047002.8,N
1622890355.6,286047001.9,N
1622890375.5,286047002.6,N
1622890395.3,286047002.4,N
1622890415.1,286047000.1,N
1622890435.9,286047002.8,N
1622890455.7,286047002.3,N
1622890475.5,286047001.7,N
1622890495.4,286047002.0,N
1622890515.2,286047002.6,N
1622890535.0,286047001.8,N
1622890536.0,286047001.8,N
1622890555.8,286047002.1,N
1622890575.6,286047002.1,N
1622890595.5,286047001.5,N
1622890615.3,286047002.1,N
1622890635.1,286047002.1,N
1622890655.9,286047002.4,N
1622890675.7,286047002.5,N
1622890695.6,286047001.6,N
1622890715.4,286047004.0,Y
1622890735.2,286047000.2,P
1622890755.1,286047002.6,P
1622890756.0,286047002.6,N
1622890775.8,286047002.3,N
1622890795.6,286047002.7,N
